Tracking 19847 objects as of 16-Sep-2019
HD Live streaming from Space Station
objects crossing your sky now

FENGYUN 1C DEB

Track FENGYUN 1C DEB now!
10-day predictions


NORAD ID: 31062
Int'l Code: 1999-025BFG
Perigee: 862.6 km
Apogee: 1,118.6 km
Inclination: 99.2 °
Period: 104.8 minutes
Semi major axis: 7361 km
RCS: 0.0043 m2 (small)
Launch date: May 10, 1999
Source: People's Republic of China (PRC)
Launch site: Taiyaun Space Center, China (TSC)

Note: This is SATELLITE DEBRIS
aabbcc
Your satellite tracking list
Your tracking list is empty




NASA's NSSDC Master Catalog

Two Line Element Set (TLE):
1 31062U 99025BFG 19256.54589215 -.00000012  00000-0  29817-4 0  9994
2 31062  99.2315 151.3392 0173812 226.8939 256.3446 13.74499879630547
Source of the keplerian elements: AFSPC